Location: Beetenbrück
(52.8113°N, 9.5946°E)
Time: 17:21:44
(UTC+00:00)

Cosmos 2322 Rocket - Pass Details

Date: 14 April 2026
Orbit: 832 x 849 km, 71.0° (Epoch: 9 May)

Event Time Altitude Azimuth Distance (km) Brightness Sun altitude
Rises 19:43:27 0° 242° (WSW) 3,374 5.7 -12.2°
Reaches altitude 10° 19:46:06 10° 252° (WSW) 2,442 5.1 -12.6°
Maximum altitude 19:51:11 34° 317° (NW) 1,344 4.0 -13.2°
Drops below altitude 10° 19:56:17 10° 22° (NNE) 2,455 4.8 -13.8°
Sets 19:58:58 0° 31° (NNE) 3,394 5.4 -14.1°
